Wind_Speed
25 20 18 18 17 18 19 20 20 19 20 21 22 22 23 21 20 19 18 18 17 16 15 15 16 17 18 19 18 18 17 17 15 13 11 10 10 10 10 10 10 10 10 10 9 9 9 9 9 9 9 9 10 10 10 10 9 9 9 8 8 6 5 4 4 3 3 4 5 6 6 5 5 6 6 6 6 6 6 5 5 4 3 2 2
26 23 21 19 20 21 22 22 20 19 20 21 22 23 23 21 20 19 18 17 16 15 15 15 16 17 18 19 19 18 17 17 15 12 10 10 9 9 10 10 10 10 9 9 9 8 9 9 9 9 9 9 9 10 9 9 9 9 8 8 7 6 5 4 3 3 3 4 5 6 6 6 6 6 6 7 7 7 7 6 5 4 3 2 1
27 25 23 21 22 22 20 20 19 20 20 21 23 24 23 21 20 18 17 16 16 16 16 16 17 18 19 20 19 18 17 17 15 11 9 9 9 9 9 9 9 9 9 9 8 8 9 9 9 8 9 9 9 9 9 9 9 9 8 7 6 5 4 3 2 2 3 4 5 5 6 7 6 6 7 7 7 8 7 7 6 5 4 3 2
29 26 24 23 23 21 19 19 20 21 22 24 25 24 22 21 20 18 16 15 16 16 17 17 18 19 20 20 20 19 17 16 14 10 9 9 8 9 9 9 9 9 9 8 8 9 9 9 9 8 9 9 9 9 9 8 8 9 8 7 6 5 4 3 2 1 2 4 5 5 6 7 7 7 7 8 8 8 8 7 7 6 4 3 3
30 28 26 25 23 21 20 21 22 23 24 25 25 23 21 20 19 17 16 15 16 17 17 18 19 20 21 20 20 19 17 16 13 10 9 9 9 9 9 9 9 9 9 8 8 9 9 10 9 9 9 9 10 9 8 8 8 8 8 7 6 5 3 2 1 1 2 3 4 5 6 7 7 7 7 8 8 9 9 8 7 6 5 4 4
32 30 28 27 25 23 22 23 24 25 25 25 23 22 20 19 17 16 16 16 17 17 18 19 20 21 22 21 20 19 17 15 12 10 10 9 9 9 10 10 10 9 9 9 9 9 10 10 9 9 9 10 10 9 8 8 8 8 8 7 6 5 2 1 0 0 1 3 4 5 6 7 7 8 8 8 9 9 9 9 8 7 7 6 5
33 32 29 26 25 24 24 25 26 26 25 24 22 20 19 17 16 15 16 17 17 18 19 19 21 22 23 22 20 18 16 14 10 10 10 10 10 9 10 10 10 10 10 10 10 10 11 11 10 10 11 11 10 9 9 8 8 8 7 6 5 4 2 1 1 1 2 3 4 5 6 7 7 8 8 9 9 9 9 9 9 8 7 7 6
34 31 27 25 24 24 25 26 25 25 24 23 21 19 18 16 15 15 16 17 18 18 19 20 21 23 23 23 20 17 15 12 10 10 10 10 10 10 11 11 10 10 10 10 11 11 12 12 11 10 11 11 10 9 9 8 8 7 6 6 5 4 1 0 1 1 2 3 3 5 6 7 7 8 9 9 9 10 10 10 9 9 8 8 7
31 28 25 24 24 24 25 25 25 24 23 22 21 19 18 16 15 16 16 17 18 19 19 21 23 24 24 23 20 16 13 11 10 10 11 11 11 11 11 12 11 11 11 11 11 12 13 13 11 11 11 11 10 9 9 8 8 7 6 5 5 3 1 0 1 2 2 3 3 4 5 6 7 8 9 9 10 10 10 10 10 9 9 8 7
26 24 23 23 24 24 25 24 24 23 22 21 20 19 18 16 16 16 17 18 18 19 20 21 23 24 25 24 19 14 12 10 10 11 11 11 11 12 12 12 12 12 12 12 12 13 14 14 12 11 11 10 10 9 8 8 8 6 4 4 4 3 1 1 2 2 2 3 3 3 3 5 7 8 9 9 10 10 11 11 10 10 9 9 8
23 22 23 23 23 24 24 23 22 22 21 21 20 19 17 16 16 17 17 18 18 19 21 22 24 25 25 24 19 14 11 10 10 11 12 12 12 13 13 13 13 13 13 13 13 13 14 14 12 11 11 10 9 9 8 8 8 6 4 4 4 3 2 2 2 2 2 3 3 3 2 5 7 8 9 9 10 11 11 11 11 11 10 9 9
22 23 23 23 24 24 24 23 22 22 21 21 20 18 17 17 17 17 18 18 18 19 21 23 24 25 25 24 19 13 11 10 10 12 13 13 13 14 14 14 15 15 14 13 13 13 13 14 12 11 11 10 9 9 8 8 8 6 4 4 4 3 3 3 3 3 3 3 4 3 3 4 6 8 9 9 10 11 11 12 12 12 11 10 9
23 24 25 25 24 24 23 23 23 23 23 21 20 19 18 18 18 18 18 18 18 20 21 23 24 24 24 23 19 14 12 12 11 13 14 14 15 15 16 15 16 16 15 14 12 12 12 13 13 12 12 10 9 9 8 8 8 7 5 4 5 5 3 3 3 4 4 4 4 4 3 4 5 6 8 9 9 10 11 12 12 12 12 11 10
24 25 25 25 25 24 25 24 24 24 23 22 20 19 18 18 18 19 18 18 19 19 21 23 23 24 23 23 19 15 13 13 13 13 15 16 16 17 17 17 16 17 16 14 12 11 11 12 13 12 12 11 10 9 8 8 8 7 5 5 6 6 5 5 5 5 5 5 5 4 4 4 4 5 7 9 9 10 10 11 12 12 12 12 12
22 23 23 24 24 25 25 25 25 25 23 22 20 19 18 18 18 19 18 18 19 19 21 22 22 23 23 22 20 17 15 15 15 14 15 16 17 18 19 18 18 17 17 15 13 12 12 12 13 13 13 12 11 10 8 8 8 7 5 5 7 8 7 6 6 5 5 5 5 5 4 4 4 5 6 8 9 10 10 10 11 12 13 13 13
18 20 21 22 23 24 25 25 26 25 23 22 20 20 19 18 18 18 18 18 18 19 21 21 21 22 22 22 21 19 16 15 17 16 15 17 19 20 19 19 19 18 18 15 14 14 14 14 14 15 14 13 13 11 9 9 9 7 5 5 8 9 8 7 7 6 5 4 5 5 4 4 3 4 5 6 8 9 10 10 10 11 12 13 13
18 19 20 21 23 24 25 25 25 25 24 22 21 21 20 19 18 18 17 17 17 18 21 21 21 22 22 22 22 20 18 16 17 17 17 19 21 21 21 22 21 19 18 16 15 16 17 16 16 16 16 15 14 12 9 9 9 7 5 5 8 10 9 8 8 7 6 5 5 5 5 4 4 3 4 5 6 7 9 9 10 10 11 12 13
20 20 21 22 24 25 26 26 25 25 24 23 22 22 20 18 18 18 17 16 16 18 20 21 22 22 22 23 22 21 19 18 18 19 21 23 23 21 22 26 24 21 19 17 16 17 18 17 17 17 17 16 14 12 9 9 9 7 5 5 7 10 11 10 9 8 8 7 6 6 5 5 4 4 4 4 5 6 7 8 9 10 10 11 12
21 22 24 25 26 26 25 26 26 25 24 23 22 21 20 19 20 19 18 17 17 19 20 21 22 22 23 23 21 20 20 20 20 22 22 24 23 20 22 27 27 21 18 17 17 17 18 17 16 17 16 16 14 12 9 8 8 7 5 6 8 10 12 11 9 10 10 8 8 7 6 6 5 5 5 4 5 6 6 7 8 9 10 10 11
22 24 25 26 26 25 24 24 25 24 24 23 22 21 22 22 21 19 19 19 19 19 20 21 21 22 23 22 21 21 21 21 22 23 23 22 21 19 21 27 27 21 17 18 17 17 18 17 16 16 16 16 15 13 10 8 8 6 5 7 10 11 11 11 10 10 10 10 9 8 7 7 6 6 5 5 5 6 6 6 7 8 9 9 10
24 25 26 26 25 24 24 24 24 24 23 24 24 25 25 24 21 20 21 21 21 21 21 21 21 22 22 22 21 21 22 21 22 22 22 21 20 19 20 26 25 19 17 17 16 16 16 16 15 15 15 15 15 13 12 10 8 6 5 8 12 12 11 11 11 11 11 10 9 9 8 7 7 7 6 6 6 6 6 7 7 8 8 9 10
24 26 26 25 24 24 24 24 24 24 23 24 24 26 25 23 22 22 23 22 22 22 22 22 22 22 22 21 20 21 22 21 21 20 21 21 20 18 21 26 22 17 16 16 15 15 15 15 14 14 14 14 15 14 13 11 9 7 6 9 12 12 11 10 11 13 12 9 9 9 8 8 8 8 8 8 7 7 7 7 7 8 8 9 10
25 27 26 25 24 24 24 24 24 23 23 24 24 24 24 23 23 23 22 22 22 22 23 23 23 23 22 21 21 21 21 20 19 18 19 18 17 18 23 23 18 16 15 14 14 15 15 15 14 14 13 14 14 14 14 12 10 8 8 11 12 11 10 10 12 13 12 9 9 9 9 9 9 10 9 9 8 8 7 7 8 8 9 9 10
27 27 27 25 24 25 24 24 24 23 23 23 23 23 23 22 22 21 21 21 21 22 23 24 24 24 23 22 22 21 20 19 17 15 15 16 18 23 23 19 16 15 13 12 13 13 15 15 14 14 13 14 15 15 14 12 11 9 9 11 11 10 10 11 12 13 12 11 10 10 10 10 10 11 11 10 10 9 8 8 8 8 9 9 10
28 27 26 25 25 25 25 25 25 24 24 24 23 22 22 21 20 20 20 20 21 22 22 23 24 24 24 23 22 21 20 20 17 15 15 18 22 22 18 16 15 14 12 12 11 12 13 13 13 13 14 14 15 15 14 12 10 8 8 10 10 10 11 11 12 12 12 12 12 12 12 12 11 11 11 12 11 11 10 10 10 10 10 10 11
27 26 25 24 24 25 25 25 25 25 25 23 22 21 20 19 20 20 19 19 21 22 22 23 24 24 24 24 22 22 21 20 19 17 17 18 19 17 16 15 14 13 12 12 12 11 12 12 12 13 14 14 13 13 12 10 9 7 7 8 8 9 10 11 12 13 13 14 14 14 14 13 13 13 12 13 13 13 13 12 12 12 12 12 12
27 25 23 24 24 25 25 24 25 25 24 22 20 18 18 19 19 19 18 18 19 21 21 22 23 24 24 23 22 22 20 18 18 17 17 16 16 15 15 15 13 12 13 13 12 10 11 12 12 13 13 13 11 10 9 8 6 6 7 7 8 9 11 11 12 14 15 15 15 15 15 15 15 15 14 14 15 15 14 14 14 14 14 14 14
25 25 24 24 24 25 23 23 24 24 23 20 17 16 18 19 18 18 17 17 18 19 21 21 22 23 24 24 23 22 19 17 18 17 16 15 14 14 14 14 13 13 14 13 11 9 10 11 11 12 11 11 10 9 8 7 5 5 6 7 9 10 11 12 14 15 15 15 15 15 16 16 16 17 17 17 17 16 16 16 16 15 15 16 16
24 25 25 24 23 23 22 22 22 21 21 18 16 18 19 18 17 17 16 16 16 17 19 20 21 24 25 25 24 21 19 18 18 16 15 14 13 13 14 14 13 14 14 13 11 10 11 12 12 11 10 10 10 10 9 7 7 7 6 7 9 10 12 13 14 14 14 15 14 15 16 17 17 18 18 18 18 18 17 17 16 16 17 17 17
24 25 24 23 21 20 19 19 18 18 19 17 17 19 17 15 15 15 15 15 14 15 18 19 21 22 22 23 23 20 18 16 15 14 15 15 13 13 14 13 13 14 14 13 11 10 11 13 13 11 9 10 12 11 8 7 9 10 9 8 9 9 11 12 13 13 12 12 12 13 15 17 18 18 18 19 19 18 17 17 17 17 17 18 18
22 22 19 18 16 14 16 17 17 17 18 17 16 16 14 13 13 12 13 14 14 15 17 19 20 20 19 19 18 17 17 15 14 14 15 15 14 14 13 13 13 13 13 12 10 10 11 12 13 11 9 11 12 10 9 9 9 9 8 8 7 7 8 9 11 11 9 9 9 11 14 15 16 17 18 18 18 18 18 17 17 17 17 17 18
19 18 15 15 12 12 15 17 17 18 18 15 13 13 12 11 11 12 12 13 14 14 16 18 17 17 16 15 14 14 16 15 14 15 15 15 14 13 13 13 13 13 13 11 10 10 11 12 13 11 9 11 11 8 8 9 8 6 6 6 6 6 6 7 8 8 6 6 8 11 13 14 14 14 15 16 16 17 17 16 16 16 16 17 18
16 16 15 14 12 12 15 16 18 18 16 12 10 12 10 10 12 12 13 14 15 14 15 14 13 13 12 12 12 14 16 15 14 15 15 15 14 13 13 14 14 14 12 11 11 10 9 10 11 10 10 10 10 8 6 7 7 5 4 5 6 6 6 6 5 5 5 7 10 12 12 11 11 11 12 12 13 14 15 16 16 16 17 17 17
15 16 16 14 12 13 15 16 18 18 15 12 10 9 8 8 9 9 10 12 13 12 10 9 9 9 10 10 11 13 14 13 13 14 15 15 14 13 13 14 14 13 12 11 11 9 7 7 9 10 10 9 9 7 5 5 4 2 2 2 4 6 5 4 4 5 6 9 12 11 9 9 9 9 10 10 11 12 13 14 15 16 17 18 18
15 18 19 17 13 13 14 15 17 16 14 11 9 9 7 6 5 4 5 6 8 9 6 5 7 9 10 11 11 12 12 12 13 14 14 14 14 13 13 13 13 13 13 11 10 8 7 6 8 10 10 10 9 7 6 5 4 3 2 2 3 4 3 3 4 5 6 9 9 7 6 8 8 8 9 10 10 11 11 12 14 15 16 17 17
18 20 21 18 14 14 15 15 16 15 13 11 9 9 8 7 5 5 3 3 5 6 7 9 11 10 9 11 12 14 14 14 14 15 15 14 14 13 12 12 12 12 11 10 8 7 7 6 7 9 11 10 9 7 5 6 5 5 4 4 4 4 3 4 4 4 6 7 5 4 4 6 7 7 7 8 8 8 9 10 11 12 14 15 15
20 21 20 17 14 14 15 15 15 15 15 12 10 9 8 7 7 7 5 6 7 9 12 13 12 11 12 13 15 15 15 15 14 14 14 14 13 12 11 11 11 10 9 8 7 6 6 6 6 7 10 11 10 6 4 4 4 5 5 4 4 4 4 4 4 4 5 5 3 4 4 4 5 6 6 6 6 5 5 5 6 7 8 9 10
18 19 17 15 13 13 14 15 15 15 16 14 12 11 9 8 7 8 9 10 11 12 13 11 10 10 11 12 12 11 11 11 12 11 12 12 12 11 10 11 10 10 9 8 7 7 7 6 6 6 7 10 10 6 3 3 4 4 5 4 4 3 3 4 4 3 3 2 2 3 3 4 4 5 5 5 4 3 3 3 3 4 4 4 6
16 16 16 14 13 13 14 14 14 15 16 16 15 13 10 8 7 8 10 10 11 10 8 7 7 7 7 8 7 7 8 9 9 9 10 10 10 10 10 11 10 9 8 8 8 7 7 7 7 6 7 9 9 8 6 4 4 4 3 4 3 3 2 3 2 2 1 1 2 3 4 4 4 5 5 4 3 3 3 3 4 4 5 5 7
15 16 16 14 13 12 12 13 13 14 15 15 15 13 11 9 7 8 9 9 9 8 7 7 7 7 6 5 5 6 7 7 7 8 9 10 10 10 10 10 10 9 8 8 8 8 8 8 8 8 8 9 10 10 9 7 6 5 4 4 3 2 2 2 3 3 2 2 3 4 4 4 5 5 5 4 4 4 4 4 5 6 7 7 8
15 15 15 14 13 12 12 12 13 13 13 12 11 10 8 8 8 8 8 8 8 8 9 9 9 7 6 5 5 5 5 7 7 9 10 10 10 10 10 10 9 8 8 8 8 8 8 8 9 9 9 9 9 10 10 9 9 6 5 6 5 3 4 4 3 3 3 3 4 5 6 6 7 7 6 6 6 7 6 6 7 8 8 8 8
14 15 15 14 13 12 12 12 12 12 11 10 8 6 5 6 6 6 6 7 8 9 9 9 8 7 7 7 7 6 7 8 9 10 12 12 11 11 11 11 10 9 9 9 8 8 9 9 9 10 9 8 9 9 9 10 8 6 6 7 6 6 6 6 4 3 4 4 4 5 7 8 9 8 8 8 9 8 9 9 9 9 9 9 9
14 14 13 13 12 12 13 13 13 11 10 11 10 7 5 5 5 6 7 8 8 9 9 8 8 9 9 10 11 10 10 11 11 12 13 13 13 13 12 12 12 10 9 9 9 10 10 10 11 11 10 9 9 9 9 9 7 6 8 8 8 8 8 7 5 5 5 6 6 7 9 10 9 9 9 10 10 10 10 11 11 11 10 10 11
14 13 12 11 11 12 13 14 15 13 11 11 10 7 5 4 5 6 8 8 8 8 8 9 10 11 12 13 13 13 12 12 12 12 12 12 13 13 13 13 13 11 10 10 11 11 11 11 12 12 11 10 10 9 9 9 9 9 9 10 10 10 9 8 7 7 7 8 9 10 10 10 9 9 11 11 11 11 11 12 12 12 11 11 12
14 14 13 12 12 12 13 14 15 14 12 10 9 7 5 4 4 6 8 8 7 7 7 8 10 11 11 12 13 13 12 12 12 13 13 12 12 13 12 13 13 12 11 11 12 13 13 12 13 13 12 12 11 11 10 10 10 10 10 11 11 11 10 9 9 9 9 9 9 10 11 10 10 10 12 12 12 12 12 12 12 13 13 13 13
14 14 13 12 12 12 12 11 11 11 10 9 7 6 5 6 5 6 9 10 8 7 8 9 10 10 11 12 12 13 13 13 13 13 13 12 11 12 12 11 12 12 11 12 13 14 13 13 13 13 13 12 12 12 11 11 11 11 12 12 12 12 10 11 11 9 9 9 9 10 11 11 11 11 12 12 13 13 12 13 13 13 14 14 13
13 13 12 12 12 12 11 10 8 7 7 8 7 7 7 8 8 8 11 13 12 12 12 11 11 11 12 12 13 12 12 12 12 12 12 11 10 11 11 11 10 11 10 11 12 13 13 13 13 13 13 12 12 12 12 12 12 12 12 13 13 12 11 11 11 10 9 8 8 9 11 12 12 12 12 13 14 14 13 13 13 13 14 14 13
12 12 12 12 12 12 13 13 11 10 9 9 9 10 10 11 11 11 13 15 15 14 13 12 12 12 12 12 12 11 11 10 10 11 11 10 10 10 10 10 10 10 9 9 10 11 12 13 13 13 13 12 12 12 12 13 13 13 13 13 13 12 11 11 11 10 10 9 10 10 11 11 12 13 14 14 15 14 13 13 13 13 13 13 13
12 11 11 11 11 12 13 14 13 11 10 10 10 10 11 12 12 12 13 15 14 14 12 12 12 12 11 11 11 11 10 9 9 9 9 9 9 9 9 10 10 10 9 10 10 11 11 12 13 13 13 13 13 13 14 14 14 14 14 14 13 12 12 12 12 11 11 11 11 11 11 11 12 13 14 15 14 13 12 13 13 13 12 12 11
10 10 11 11 11 12 12 12 11 10 10 10 9 9 10 11 11 12 13 14 14 13 12 12 13 12 11 11 10 11 10 9 8 9 9 9 8 8 8 9 9 10 10 11 12 12 13 13 13 13 14 14 14 14 14 14 14 15 15 14 13 13 13 13 13 12 12 12 12 11 10 11 13 13 14 14 13 12 12 13 13 12 11 11 10
9 10 10 11 11 12 13 13 12 11 10 11 10 10 9 8 9 10 11 13 13 13 13 13 12 11 11 11 11 11 11 10 9 9 10 10 8 8 7 6 7 8 9 11 12 13 14 14 15 15 15 14 13 14 14 13 14 14 14 14 13 13 13 14 13 12 12 12 11 10 10 11 12 13 13 13 13 12 12 12 12 12 11 10 9
Wind_Direction
287 286 280 284 288 282 282 285 286 287 289 290 293 299 301 301 301 301 303 306 312 317 320 321 320 319 319 320 323 325 327 328 324 319 316 314 312 310 309 309 308 306 306 306 304 303 303 304 301 299 298 297 297 298 298 300 301 300 298 299 300 299 294 284 268 243 215 198 181 164 160 169 178 178 177 181 179 172 171 166 157 150 136 110 76
286 287 286 287 288 289 286 284 286 288 289 290 295 300 301 300 299 299 303 308 313 317 318 318 318 317 317 318 321 324 327 328 324 319 316 316 315 313 314 314 312 307 305 305 304 302 301 299 296 297 296 296 300 302 302 303 304 302 299 297 298 298 294 287 275 248 213 194 182 171 165 169 178 180 180 182 181 175 173 170 164 161 154 137 106
284 288 291 291 292 293 289 283 284 287 288 292 298 300 299 297 297 300 305 311 314 315 315 316 316 315 315 316 319 322 326 327 323 317 314 316 317 318 320 318 312 307 305 304 304 302 298 292 293 296 295 297 302 303 303 305 305 301 297 294 296 297 289 280 266 239 210 193 183 177 171 171 177 181 181 182 183 178 174 173 170 171 169 162 157
284 288 288 288 287 287 286 284 284 286 288 293 299 298 296 296 298 303 309 313 313 313 314 314 314 313 313 314 317 320 325 325 321 315 312 316 319 324 325 320 312 308 306 305 304 302 296 291 292 295 297 301 301 300 301 304 303 300 298 299 305 305 291 270 242 219 206 194 182 179 179 175 177 182 183 184 184 182 177 175 175 176 176 175 175
283 285 284 282 279 277 280 283 286 285 288 293 296 294 294 296 299 305 309 311 310 310 311 312 312 311 311 312 314 318 323 323 318 312 311 315 321 328 327 320 314 308 306 305 304 299 296 294 294 296 301 302 298 298 303 305 304 303 304 308 313 311 298 274 233 201 195 193 184 180 185 181 178 182 186 186 186 185 181 179 179 178 179 181 182
279 280 280 277 271 271 276 281 284 284 286 290 291 291 293 295 299 304 307 308 307 307 308 309 308 307 308 310 312 316 321 321 314 309 310 314 320 326 325 319 311 306 303 304 302 298 296 296 298 301 302 300 298 302 307 308 306 307 309 311 312 310 302 287 190 166 174 185 188 182 189 187 182 185 188 190 189 188 185 182 182 182 181 183 183
276 276 276 273 267 270 276 281 282 281 284 286 288 289 290 293 297 301 302 304 304 304 304 305 304 304 306 307 310 315 319 318 308 304 309 313 318 321 322 318 309 303 302 302 299 298 297 295 299 302 300 298 301 307 308 308 308 309 311 310 306 304 310 331 89 136 160 170 185 188 193 189 186 189 191 193 192 191 189 185 185 186 186 186 185
273 273 272 268 266 270 276 280 280 279 282 283 284 285 287 292 295 297 298 300 300 300 300 300 301 301 302 304 308 313 315 312 298 296 306 312 315 315 317 316 308 302 301 300 297 298 296 294 298 300 297 299 303 306 307 306 307 309 310 304 299 299 314 34 99 134 147 158 182 193 194 189 191 197 195 195 196 193 192 190 188 188 191 189 187
268 269 268 264 265 270 275 276 275 277 279 280 281 282 287 290 293 294 296 297 296 297 297 297 297 298 299 300 305 309 310 306 290 288 299 306 310 311 310 312 308 303 300 298 298 298 295 292 296 296 295 299 303 304 306 305 304 308 308 298 291 291 287 149 133 136 139 147 168 185 190 189 197 203 201 198 199 198 195 194 191 189 191 192 190
264 264 263 261 262 266 268 270 271 275 276 277 279 282 286 287 290 291 293 293 293 296 295 293 294 295 296 297 301 304 302 301 287 282 290 297 304 306 305 308 308 302 298 298 299 298 294 292 294 293 293 297 300 302 301 300 298 300 302 288 283 283 265 204 163 142 143 151 148 152 178 196 205 208 207 204 204 204 200 197 195 192 192 194 193
262 260 259 258 258 259 261 266 271 273 274 276 278 281 283 284 286 287 288 289 291 293 291 290 290 291 292 294 298 297 294 295 285 278 283 288 294 299 301 303 304 300 297 297 298 296 293 291 293 292 292 294 295 296 293 292 289 288 285 274 271 267 246 217 179 153 160 161 138 130 178 205 209 210 211 210 210 210 207 203 199 196 195 197 197
260 258 257 255 253 256 262 268 272 272 273 273 274 276 279 280 282 283 283 284 287 288 287 287 287 288 289 290 292 290 285 285 281 276 278 283 287 291 295 297 298 297 296 296 296 295 291 290 294 293 292 292 291 291 290 289 285 280 270 259 255 245 231 221 188 165 174 159 138 141 178 200 205 209 212 214 215 216 214 210 205 201 199 199 200
257 257 255 253 255 261 268 272 273 273 272 271 272 273 275 276 277 278 279 281 283 283 283 284 284 286 286 286 287 284 277 277 276 274 275 278 281 284 288 291 293 294 294 294 295 294 290 290 294 293 291 292 291 289 289 289 285 279 266 248 244 237 218 211 194 181 183 163 148 152 165 185 198 207 212 215 218 220 219 217 213 208 205 203 202
255 254 253 255 261 267 271 272 273 273 272 271 271 271 272 272 273 275 277 279 278 278 280 281 283 284 283 283 283 279 272 271 271 270 271 273 275 278 281 285 288 290 291 292 294 295 294 292 292 291 289 289 289 286 286 286 282 278 265 243 240 234 211 204 201 190 189 170 159 159 162 177 191 205 212 213 216 221 223 223 221 216 211 208 206
253 253 256 261 267 270 271 271 271 270 269 268 269 270 270 271 273 275 276 275 273 274 277 278 280 278 278 279 278 276 271 266 266 265 265 269 271 273 275 280 284 285 286 287 290 294 295 292 290 288 287 287 286 284 282 280 276 273 262 243 240 237 220 212 209 199 199 186 170 164 167 178 188 202 212 213 213 218 222 225 226 223 219 215 212
250 256 259 263 266 267 268 267 267 266 265 266 268 269 269 270 271 272 273 268 267 272 275 274 274 273 273 274 273 274 270 262 263 262 261 265 267 269 272 274 277 279 280 281 285 291 292 289 287 285 285 284 283 283 280 275 273 269 261 245 240 240 231 220 218 210 205 200 184 172 169 175 188 204 214 218 216 217 220 222 226 227 226 223 219
252 259 259 262 264 265 265 264 264 263 265 266 267 268 267 268 268 270 267 259 263 271 272 270 269 269 269 270 271 271 268 260 259 261 261 263 263 265 268 268 270 274 275 277 283 289 291 287 283 281 281 280 280 281 278 273 271 268 262 250 242 240 235 225 221 220 212 207 200 185 177 178 186 202 217 226 224 223 223 223 225 228 230 229 226
253 256 259 262 263 264 263 263 262 263 264 264 265 266 264 264 268 268 257 249 262 269 266 266 266 267 267 269 271 269 265 259 258 259 258 260 259 258 262 264 262 266 271 275 281 287 290 286 280 277 276 276 277 277 274 269 268 266 261 255 245 238 235 231 223 221 220 213 208 202 194 189 186 193 210 227 232 232 230 229 229 230 232 234 232
249 252 257 260 262 263 263 262 262 263 262 262 263 260 258 263 268 262 246 246 262 264 260 262 264 265 267 268 268 265 260 257 257 257 258 259 256 255 264 267 260 258 268 273 278 284 286 282 276 273 272 273 273 272 269 265 265 263 258 255 249 237 235 238 233 224 222 219 216 214 209 203 199 198 203 218 234 238 238 238 237 236 236 238 238
247 252 255 258 261 263 262 262 262 263 262 261 259 255 259 265 265 253 241 250 261 257 255 259 261 263 264 264 261 256 256 256 255 257 261 261 260 260 268 274 264 255 264 270 275 281 280 277 272 269 268 269 271 269 265 262 263 262 255 251 248 242 237 242 245 234 225 223 222 220 216 216 212 209 208 213 229 239 243 245 245 245 242 242 242
250 253 255 258 262 264 264 264 264 264 262 261 259 258 262 263 256 245 244 254 256 251 254 256 256 259 261 260 256 255 256 258 258 261 265 266 267 263 269 277 268 256 262 266 272 277 276 274 270 267 266 267 270 270 266 261 261 260 254 250 248 246 241 240 249 248 235 225 223 223 222 222 218 214 216 216 223 233 242 249 252 253 251 248 247
252 253 256 260 264 266 266 265 265 264 263 262 260 260 260 259 253 246 249 253 250 249 253 254 255 258 261 260 255 257 261 262 263 264 265 266 265 264 271 273 263 255 260 262 268 271 270 271 269 268 267 268 270 270 268 263 261 257 251 252 250 248 245 240 247 253 248 235 227 228 227 226 223 220 223 223 223 226 234 244 252 257 258 256 254
252 254 257 262 264 266 266 265 265 263 263 262 262 260 258 257 252 249 249 248 247 250 252 253 256 262 265 261 256 258 263 265 262 258 258 258 260 269 273 265 254 255 259 260 264 264 266 267 268 267 267 267 267 268 267 264 261 254 248 252 253 252 249 243 243 250 254 248 237 233 232 230 228 227 226 227 228 227 230 237 246 255 260 262 261
251 255 258 260 263 265 265 265 264 263 262 263 264 261 259 256 251 248 247 246 248 250 252 255 258 263 264 258 257 260 261 260 251 244 248 254 265 272 267 255 252 258 260 259 259 260 264 264 265 265 264 264 264 265 266 264 261 253 247 251 255 255 250 243 242 246 249 248 244 240 237 235 233 232 229 229 230 231 232 235 240 247 254 260 262
250 254 258 262 264 266 266 265 264 264 263 264 263 260 260 258 252 249 247 249 251 252 254 256 258 260 259 255 256 257 257 252 241 234 246 259 266 264 253 248 255 259 260 257 256 262 263 261 263 263 262 263 264 265 266 266 266 260 252 253 255 255 252 246 244 244 244 244 244 244 243 240 237 235 231 228 229 230 231 233 236 240 245 251 256
251 256 261 265 266 266 266 266 265 267 267 266 264 262 263 258 253 254 251 249 250 253 256 258 259 257 254 253 256 259 258 251 240 232 238 248 252 246 240 248 255 260 261 258 261 264 263 263 265 264 264 264 266 268 270 272 270 261 248 247 249 249 248 245 242 241 239 238 239 242 245 245 243 240 235 231 230 230 231 232 234 238 241 244 248
251 257 263 264 265 267 267 267 268 269 270 270 270 269 265 256 256 258 249 244 250 253 255 257 257 254 253 255 261 264 258 248 238 227 227 233 234 233 238 247 255 262 265 264 264 262 260 262 263 263 264 265 265 264 265 263 252 239 227 226 230 233 236 235 234 234 234 234 235 239 243 247 248 247 244 240 236 233 233 234 235 237 239 242 244
255 257 259 261 266 268 268 269 269 271 273 273 273 269 262 256 257 253 244 247 254 251 250 251 253 255 257 260 265 263 252 242 234 224 224 228 229 234 241 249 258 263 263 262 261 256 252 255 258 258 263 268 264 250 243 233 217 215 215 217 219 223 227 228 229 230 231 233 235 239 243 246 248 249 249 247 242 238 236 236 237 238 239 240 241
262 262 259 259 264 266 267 266 267 272 273 273 270 262 259 258 255 250 248 254 254 248 250 252 257 260 260 261 261 255 248 242 230 224 226 229 232 240 248 255 263 263 259 258 258 254 249 250 249 247 254 260 251 239 228 212 201 197 199 211 214 217 222 226 230 231 232 234 237 242 245 248 249 250 252 251 249 245 242 241 242 242 243 244 243
262 265 262 258 260 262 263 265 268 271 268 271 270 260 259 258 252 251 256 255 249 252 259 260 263 262 258 255 251 247 244 233 221 223 225 227 237 246 253 259 264 262 257 256 257 253 249 244 236 234 244 244 239 233 218 200 193 186 192 208 210 214 220 226 232 232 233 236 239 245 248 252 254 256 257 258 258 255 252 250 249 249 248 247 247
264 261 256 253 256 259 263 270 273 272 273 274 268 264 263 255 253 258 260 252 244 251 260 262 261 255 248 242 239 238 231 218 217 225 224 230 244 251 257 262 262 258 255 255 253 248 247 237 229 234 237 232 232 230 218 204 190 180 188 206 211 214 221 227 231 231 232 236 241 246 249 251 253 256 258 260 261 260 259 256 254 253 252 249 248
268 257 249 245 246 257 266 271 272 273 278 273 263 268 268 260 267 267 257 249 246 253 260 259 251 240 235 230 229 227 215 213 224 229 230 240 251 254 258 260 258 256 256 255 249 244 245 238 232 232 227 221 222 224 220 203 194 189 183 195 214 223 226 230 231 231 232 236 241 244 244 244 246 250 253 256 258 260 261 259 257 256 254 251 250
271 263 259 252 243 255 266 270 275 277 277 274 273 275 271 279 282 269 258 249 247 256 257 246 229 218 220 221 220 218 216 222 232 232 237 246 250 250 253 255 256 256 255 252 246 240 238 237 233 224 216 212 208 212 211 200 209 222 192 191 224 238 238 237 234 228 231 239 242 243 244 243 247 256 260 260 261 262 262 261 259 257 256 253 252
279 282 277 267 256 262 269 274 280 281 279 281 286 277 274 295 288 265 256 246 242 250 246 230 223 224 235 240 231 226 228 234 236 236 241 246 246 246 248 252 253 254 251 247 245 238 230 234 231 219 206 195 192 196 204 212 217 231 223 203 228 244 248 244 225 211 222 234 239 243 251 254 258 270 273 268 265 264 264 261 259 257 256 255 255
285 302 293 280 279 283 281 278 278 278 278 281 282 270 270 291 280 244 242 235 234 236 233 250 269 268 262 259 250 241 239 238 238 242 246 247 246 245 246 248 251 252 248 243 243 240 234 234 229 218 203 187 187 190 199 211 178 149 217 209 216 244 256 236 209 192 215 231 238 248 263 266 266 269 270 267 265 264 263 260 258 257 255 254 255
288 305 299 287 290 293 287 280 277 274 274 276 276 270 269 272 260 247 244 238 240 241 255 274 280 277 264 258 257 256 256 251 247 248 250 247 246 248 249 249 248 247 245 240 238 240 238 232 226 223 214 203 201 196 202 211 179 167 203 211 217 235 236 225 209 200 227 240 254 261 264 269 266 262 264 266 267 268 268 263 260 259 258 258 260
289 296 296 292 291 288 283 280 280 275 269 268 269 271 273 270 260 256 255 255 259 261 267 271 272 268 262 259 258 260 258 253 247 244 245 246 249 252 250 248 243 239 239 234 229 232 233 227 230 235 223 212 206 197 197 212 196 177 185 196 206 209 204 204 200 211 233 252 267 253 250 263 263 259 263 268 274 284 287 276 267 265 264 266 269
293 292 290 289 287 284 281 281 282 276 269 266 267 270 274 272 266 260 258 259 260 262 266 268 265 262 260 257 254 250 240 233 232 234 240 247 251 248 240 238 235 235 238 232 225 225 226 222 229 235 214 202 198 196 203 214 216 196 178 184 195 199 193 192 200 212 232 257 265 246 239 247 251 254 264 272 279 291 287 278 271 269 268 270 273
296 291 285 283 284 284 282 281 279 273 268 266 268 271 273 271 267 259 256 256 258 262 264 260 262 272 270 258 246 235 228 230 234 237 242 245 243 237 235 237 238 239 238 232 228 225 225 222 222 221 209 208 209 216 232 229 232 235 203 193 199 207 204 202 224 247 262 249 250 240 228 230 238 247 262 275 282 273 267 264 262 260 263 268 276
292 285 279 278 278 278 279 278 275 269 264 264 266 268 267 263 257 253 248 248 252 255 251 255 273 287 279 252 231 224 233 246 252 249 247 245 240 236 239 244 245 245 240 235 233 233 229 221 221 222 220 226 229 232 240 237 239 248 237 227 232 237 234 230 241 263 281 268 257 258 252 246 248 253 263 271 272 268 269 268 261 259 261 268 277
291 285 278 276 275 272 272 272 270 267 263 259 258 258 254 247 243 242 244 246 249 250 254 265 276 277 260 237 224 227 242 253 257 257 255 253 247 244 244 246 245 243 240 238 240 241 234 223 224 227 226 229 233 235 239 239 243 248 246 250 258 262 251 245 249 261 269 262 263 273 278 269 263 264 265 266 271 277 281 276 269 266 266 271 280
291 284 278 276 273 269 269 270 267 264 259 251 243 239 233 232 233 232 234 240 245 252 258 262 261 253 241 230 227 236 247 252 254 256 257 256 253 249 248 249 248 244 238 236 235 236 234 230 227 228 229 231 234 236 235 234 235 233 238 247 249 247 244 246 250 255 259 260 265 275 276 271 268 271 274 278 282 284 284 281 277 274 275 280 284
291 285 277 273 271 270 273 273 267 261 254 247 245 245 239 235 236 231 229 231 238 244 244 240 235 233 236 239 244 249 253 255 254 251 251 251 252 251 249 251 252 249 243 237 235 234 231 226 224 226 228 228 233 238 233 228 225 222 228 230 230 235 240 242 242 245 249 250 251 254 257 259 264 273 279 281 280 279 280 279 278 278 282 285 283
289 281 272 271 275 274 273 272 268 261 251 246 245 241 235 234 238 237 233 227 224 225 229 232 235 239 246 251 254 257 261 262 260 258 253 249 252 252 250 250 250 247 240 235 234 233 227 222 223 226 230 229 230 231 228 227 229 226 224 221 224 231 236 237 235 236 237 239 245 249 249 252 262 272 274 273 271 270 270 272 277 283 285 281 278
281 273 270 274 278 273 271 271 265 255 242 234 229 220 218 219 227 234 224 210 206 220 238 250 254 254 255 257 259 261 264 264 262 260 256 251 247 245 246 248 250 248 239 233 234 233 228 227 230 231 233 233 229 225 225 230 230 224 220 222 228 234 237 240 238 233 230 231 239 249 254 256 260 266 271 272 268 263 264 271 280 284 280 275 274
273 268 269 273 274 270 268 265 256 244 230 221 216 214 221 220 221 224 211 202 211 244 266 270 266 265 265 265 265 264 262 262 261 260 259 255 246 241 241 244 247 248 244 240 241 240 235 233 235 236 236 235 231 226 226 228 226 219 220 225 232 236 238 241 243 240 234 232 235 244 255 260 261 263 266 267 262 259 266 276 279 277 275 275 274
268 266 267 268 270 269 262 250 240 232 226 223 220 221 227 226 222 214 211 216 235 262 276 277 275 277 277 272 267 264 263 262 260 260 261 259 251 244 242 243 246 249 249 246 245 245 243 240 239 240 238 237 235 231 229 230 228 226 227 230 234 237 237 241 247 248 246 245 242 244 252 259 263 264 261 258 257 262 271 276 276 274 274 276 276
263 264 269 270 271 268 257 246 242 241 235 232 230 229 230 230 226 221 223 233 248 264 271 275 280 282 278 272 268 268 267 265 263 260 259 257 253 248 246 247 248 250 250 248 248 247 247 246 245 244 243 241 239 236 235 235 236 236 237 238 239 241 241 246 251 252 251 252 250 250 252 255 259 261 260 258 259 265 271 273 273 273 273 274 275
262 268 273 272 268 264 255 246 242 237 229 228 228 230 233 236 238 240 244 248 253 257 263 272 278 277 274 272 273 273 270 267 264 259 254 249 246 242 243 245 247 249 248 247 250 252 252 254 254 251 249 244 242 242 240 239 241 243 246 247 248 247 247 249 251 250 251 253 252 252 251 250 252 257 259 261 264 267 269 271 271 273 274 275 276
263 270 269 264 260 254 245 236 229 220 215 219 224 232 241 244 246 247 248 246 244 247 256 264 267 266 266 266 266 268 268 266 260 255 252 249 244 238 235 238 242 247 249 250 253 256 258 260 259 256 250 247 246 247 245 243 244 247 250 252 252 250 247 248 248 249 252 254 255 254 251 248 248 251 256 260 265 267 267 269 271 273 274 276 277
259 263 259 252 247 240 232 223 216 210 210 214 220 229 233 228 228 234 239 239 241 246 251 253 253 254 256 257 257 257 261 264 259 253 251 251 250 245 237 234 239 246 249 251 253 256 259 260 260 258 255 253 250 249 250 250 250 252 254 256 254 250 248 247 248 250 253 256 257 256 253 250 249 252 256 259 262 263 265 267 268 270 273 275 276
Height
5867 5868 5869 5869 5869 5868 5868 5868 5868 5867 5867 5866 5866 5866 5865 5865 5864 5863 5862 5861 5861 5861 5861 5860 5859 5858 5857 5857 5856 5856 5855 5855 5854 5853 5853 5852 5852 5851 5850 5850 5849 5848 5848 5847 5847 5846 5846 5845 5845 5844 5844 5843 5843 5842 5842 5842 5841 5841 5841 5840 5840 5839 5839 5839 5839 5839 5839 5839 5839 5839 5839 5839 5840 5840 5840 5840 5840 5840 5841 5841 5841 5841 5841 5841 5841
5865 5866 5867 5867 5867 5867 5867 5866 5866 5866 5865 5865 5865 5864 5864 5864 5863 5862 5861 5860 5860 5860 5859 5859 5858 5857 5856 5856 5855 5855 5855 5854 5853 5853 5852 5852 5851 5850 5850 5849 5848 5848 5847 5847 5846 5846 5845 5844 5844 5844 5844 5843 5842 5842 5842 5842 5841 5841 5840 5840 5840 5839 5839 5839 5839 5839 5838 5838 5838 5838 5839 5839 5839 5840 5840 5840 5840 5840 5841 5841 5841 5841 5841 5841 5841
5864 5865 5865 5866 5866 5866 5865 5865 5865 5864 5864 5864 5864 5863 5863 5862 5862 5861 5860 5860 5859 5859 5858 5858 5857 5856 5855 5855 5855 5854 5854 5853 5852 5852 5852 5851 5850 5850 5849 5849 5848 5847 5846 5846 5845 5845 5844 5844 5844 5844 5843 5842 5842 5842 5841 5841 5841 5841 5840 5840 5840 5840 5839 5839 5839 5839 5838 5838 5838 5838 5839 5839 5839 5839 5839 5840 5840 5840 5841 5841 5841 5842 5842 5842 5842
5863 5864 5864 5864 5865 5865 5864 5863 5863 5863 5863 5862 5862 5862 5861 5861 5860 5860 5859 5859 5858 5858 5857 5857 5856 5855 5855 5854 5854 5854 5853 5852 5852 5851 5851 5850 5850 5849 5849 5848 5847 5847 5846 5846 5845 5844 5844 5843 5843 5843 5843 5842 5842 5841 5841 5840 5840 5840 5840 5840 5840 5840 5840 5839 5839 5838 5838 5838 5838 5839 5839 5839 5839 5839 5839 5839 5840 5840 5841 5841 5842 5842 5842 5842 5842
5862 5862 5863 5863 5863 5863 5862 5862 5862 5861 5861 5861 5861 5860 5860 5860 5859 5859 5858 5857 5857 5856 5856 5855 5855 5854 5854 5853 5853 5853 5853 5852 5851 5851 5850 5850 5849 5849 5848 5848 5847 5847 5846 5845 5845 5844 5844 5843 5843 5843 5842 5841 5841 5841 5840 5840 5840 5840 5840 5839 5839 5840 5840 5840 5839 5838 5838 5838 5838 5839 5839 5839 5839 5839 5839 5839 5840 5840 5841 5841 5841 5842 5842 5842 5842
5861 5861 5861 5862 5862 5861 5860 5860 5860 5860 5860 5859 5859 5859 5859 5858 5858 5857 5856 5856 5855 5855 5855 5854 5853 5853 5852 5852 5852 5852 5852 5851 5851 5850 5850 5849 5848 5848 5848 5847 5847 5846 5846 5845 5844 5844 5843 5842 5842 5842 5841 5841 5841 5840 5840 5840 5839 5839 5839 5839 5839 5839 5840 5840 5839 5839 5838 5838 5838 5838 5839 5839 5839 5839 5839 5839 5840 5840 5841 5841 5841 5842 5842 5842 5842
5859 5859 5859 5860 5860 5859 5858 5858 5858 5858 5858 5858 5858 5858 5857 5857 5856 5856 5855 5854 5854 5854 5853 5853 5852 5851 5851 5851 5851 5851 5851 5850 5850 5849 5849 5848 5848 5847 5847 5847 5847 5846 5845 5844 5844 5843 5842 5842 5841 5841 5840 5840 5840 5840 5840 5839 5839 5839 5839 5839 5839 5839 5839 5839 5839 5839 5838 5838 5838 5838 5839 5839 5839 5839 5839 5839 5840 5840 5841 5841 5841 5841 5841 5842 5842
5857 5857 5858 5858 5857 5857 5857 5856 5856 5857 5857 5857 5856 5856 5855 5855 5855 5854 5854 5853 5853 5852 5852 5851 5850 5850 5849 5849 5850 5850 5850 5849 5849 5849 5848 5848 5847 5847 5846 5846 5846 5846 5845 5844 5843 5843 5842 5841 5841 5840 5840 5840 5840 5840 5839 5839 5839 5839 5839 5839 5838 5839 5839 5839 5839 5839 5838 5838 5838 5838 5839 5839 5839 5839 5839 5839 5840 5840 5840 5841 5841 5841 5842 5842 5842
5856 5856 5856 5855 5855 5855 5855 5854 5855 5855 5855 5855 5855 5854 5854 5853 5853 5852 5852 5852 5851 5851 5850 5850 5849 5848 5848 5848 5849 5849 5849 5848 5848 5847 5847 5847 5846 5846 5846 5846 5846 5845 5844 5843 5843 5842 5841 5840 5840 5840 5839 5839 5840 5839 5839 5839 5839 5839 5839 5839 5838 5839 5839 5839 5839 5839 5838 5838 5838 5838 5838 5839 5839 5839 5839 5839 5840 5840 5840 5841 5841 5841 5841 5841 5842
5854 5854 5853 5853 5853 5853 5853 5853 5853 5853 5853 5853 5853 5852 5852 5851 5851 5851 5850 5850 5849 5849 5849 5848 5847 5847 5846 5846 5848 5848 5847 5847 5847 5846 5846 5846 5845 5845 5845 5845 5845 5844 5843 5843 5842 5842 5841 5839 5839 5839 5838 5839 5839 5839 5838 5838 5839 5839 5839 5839 5839 5839 5839 5839 5839 5839 5838 5838 5838 5838 5838 5839 5839 5839 5840 5840 5840 5840 5840 5840 5841 5841 5841 5841 5841
5852 5851 5851 5850 5850 5850 5851 5851 5851 5851 5851 5851 5851 5850 5850 5849 5849 5849 5848 5848 5847 5847 5847 5846 5846 5845 5845 5845 5846 5846 5846 5846 5845 5845 5845 5844 5844 5844 5844 5844 5844 5843 5843 5842 5842 5842 5840 5838 5838 5838 5838 5838 5838 5838 5838 5838 5838 5839 5839 5839 5838 5839 5839 5839 5839 5839 5838 5838 5838 5838 5838 5839 5839 5839 5840 5840 5840 5840 5840 5840 5841 5841 5841 5841 5841
5849 5849 5849 5848 5848 5849 5849 5849 5849 5849 5849 5848 5848 5848 5848 5847 5847 5847 5846 5846 5846 5845 5845 5844 5844 5844 5844 5843 5844 5845 5845 5844 5844 5844 5843 5843 5843 5843 5843 5843 5843 5842 5842 5842 5842 5841 5840 5838 5838 5837 5837 5837 5837 5837 5837 5837 5837 5838 5839 5839 5838 5838 5838 5838 5839 5838 5838 5838 5838 5838 5838 5839 5839 5839 5839 5840 5840 5840 5840 5840 5840 5840 5840 5841 5841
5846 5846 5847 5846 5847 5847 5847 5847 5847 5847 5846 5846 5846 5846 5845 5845 5845 5844 5844 5844 5843 5843 5843 5842 5842 5843 5842 5842 5843 5843 5843 5843 5843 5842 5842 5842 5842 5842 5842 5842 5841 5841 5841 5841 5841 5840 5839 5838 5837 5837 5836 5836 5836 5836 5836 5836 5836 5838 5839 5839 5838 5838 5838 5838 5838 5838 5838 5838 5838 5838 5838 5838 5839 5839 5839 5839 5840 5840 5840 5840 5840 5840 5840 5840 5841
5844 5844 5844 5845 5845 5845 5845 5845 5845 5844 5844 5844 5844 5843 5843 5843 5843 5842 5842 5842 5841 5841 5840 5841 5841 5841 5840 5840 5841 5842 5842 5842 5841 5841 5840 5840 5840 5840 5840 5840 5840 5840 5840 5840 5840 5839 5838 5837 5836 5836 5835 5835 5835 5835 5836 5835 5836 5837 5839 5839 5837 5837 5838 5838 5837 5837 5837 5838 5838 5838 5838 5838 5838 5839 5839 5839 5839 5840 5840 5840 5840 5840 5840 5840 5840
5842 5842 5843 5843 5843 5843 5843 5842 5842 5842 5842 5841 5841 5841 5840 5840 5840 5840 5840 5840 5839 5839 5838 5839 5839 5839 5839 5839 5839 5840 5840 5840 5839 5839 5839 5838 5838 5838 5838 5839 5839 5839 5838 5838 5838 5838 5837 5837 5836 5835 5834 5834 5834 5835 5835 5835 5835 5836 5838 5838 5837 5836 5837 5837 5837 5837 5837 5838 5838 5838 5838 5838 5838 5838 5839 5839 5839 5839 5839 5840 5840 5840 5840 5840 5840
5840 5841 5841 5841 5841 5841 5840 5840 5839 5839 5839 5838 5838 5838 5838 5838 5838 5838 5838 5837 5837 5837 5837 5837 5837 5836 5836 5836 5836 5837 5838 5838 5838 5837 5837 5837 5836 5837 5837 5837 5837 5837 5837 5837 5837 5836 5836 5836 5835 5834 5833 5833 5833 5834 5834 5834 5834 5835 5837 5837 5836 5835 5836 5837 5837 5837 5837 5838 5838 5838 5838 5838 5838 5839 5839 5839 5839 5839 5839 5839 5839 5840 5840 5840 5840
5839 5839 5839 5839 5838 5838 5838 5837 5837 5836 5836 5836 5836 5835 5836 5836 5835 5835 5835 5835 5835 5835 5835 5835 5834 5834 5834 5834 5834 5834 5835 5836 5836 5835 5834 5834 5834 5834 5835 5835 5835 5835 5836 5836 5836 5835 5835 5835 5834 5833 5832 5831 5832 5833 5833 5833 5833 5834 5836 5837 5836 5834 5835 5836 5837 5837 5837 5837 5837 5837 5838 5838 5838 5838 5839 5839 5839 5839 5839 5839 5839 5839 5839 5840 5840
5836 5836 5836 5836 5836 5836 5836 5835 5834 5834 5834 5833 5833 5833 5833 5833 5833 5833 5833 5833 5833 5833 5833 5832 5832 5832 5832 5832 5832 5832 5832 5833 5833 5833 5832 5831 5831 5832 5833 5833 5833 5833 5834 5835 5834 5834 5833 5833 5833 5832 5831 5830 5830 5831 5832 5832 5833 5833 5835 5835 5835 5834 5834 5835 5836 5836 5836 5837 5837 5837 5837 5837 5838 5838 5839 5839 5839 5839 5838 5838 5838 5839 5839 5839 5839
5834 5834 5834 5834 5834 5834 5833 5833 5832 5831 5831 5831 5831 5831 5831 5831 5831 5831 5831 5831 5831 5831 5831 5830 5830 5830 5829 5829 5830 5830 5830 5830 5831 5830 5829 5829 5829 5830 5830 5830 5831 5831 5832 5833 5833 5833 5832 5832 5831 5830 5829 5829 5829 5830 5831 5831 5832 5832 5833 5834 5834 5833 5833 5833 5835 5835 5835 5836 5836 5836 5837 5837 5838 5838 5838 5839 5839 5839 5839 5838 5838 5838 5839 5839 5839
5833 5833 5832 5832 5832 5832 5831 5830 5830 5829 5829 5829 5829 5829 5828 5828 5829 5829 5829 5829 5829 5829 5828 5828 5828 5828 5827 5827 5828 5828 5827 5828 5828 5828 5827 5827 5828 5828 5828 5828 5829 5830 5830 5831 5831 5831 5831 5830 5829 5828 5828 5827 5827 5828 5830 5830 5831 5832 5832 5833 5832 5832 5833 5833 5833 5834 5835 5835 5835 5836 5837 5837 5837 5838 5838 5838 5838 5838 5838 5838 5838 5838 5838 5838 5838
5831 5830 5830 5830 5830 5830 5829 5828 5828 5827 5827 5827 5827 5826 5826 5826 5826 5827 5827 5827 5827 5827 5826 5826 5826 5825 5825 5825 5825 5825 5825 5825 5826 5826 5826 5826 5826 5827 5827 5827 5828 5828 5829 5829 5830 5830 5829 5829 5828 5827 5826 5826 5826 5827 5828 5829 5829 5831 5832 5831 5830 5831 5832 5833 5833 5833 5833 5834 5835 5835 5836 5836 5837 5837 5838 5838 5838 5838 5838 5838 5838 5838 5838 5838 5838
5828 5828 5828 5828 5828 5827 5826 5826 5826 5825 5825 5824 5824 5823 5823 5824 5824 5824 5824 5825 5825 5825 5825 5824 5824 5823 5823 5824 5824 5824 5824 5824 5824 5824 5824 5824 5825 5825 5825 5826 5827 5827 5828 5828 5828 5828 5828 5827 5826 5825 5825 5825 5824 5825 5826 5827 5828 5830 5831 5830 5829 5830 5831 5832 5832 5831 5832 5834 5835 5835 5836 5836 5837 5837 5837 5837 5838 5838 5838 5838 5838 5838 5838 5838 5838
5826 5825 5825 5825 5825 5825 5824 5824 5823 5823 5822 5822 5822 5821 5821 5821 5821 5822 5822 5823 5823 5823 5823 5822 5822 5822 5822 5822 5822 5822 5822 5822 5821 5822 5822 5823 5823 5823 5824 5824 5825 5826 5826 5827 5827 5826 5826 5826 5825 5824 5824 5823 5823 5823 5824 5825 5826 5828 5829 5828 5828 5829 5830 5831 5831 5831 5832 5833 5834 5834 5835 5835 5836 5836 5836 5837 5837 5837 5837 5837 5837 5837 5837 5837 5837
5822 5822 5822 5823 5822 5822 5821 5821 5820 5820 5819 5819 5819 5819 5818 5818 5819 5820 5821 5821 5821 5821 5820 5820 5820 5820 5820 5820 5820 5820 5820 5819 5819 5819 5820 5821 5822 5822 5823 5823 5824 5824 5825 5825 5825 5825 5824 5824 5823 5823 5822 5822 5821 5821 5822 5823 5825 5827 5828 5827 5827 5828 5829 5830 5830 5831 5831 5832 5832 5832 5833 5834 5834 5835 5835 5836 5836 5836 5836 5836 5837 5837 5837 5837 5836
5819 5819 5820 5820 5820 5819 5818 5818 5817 5817 5817 5816 5816 5816 5816 5816 5817 5818 5819 5819 5819 5819 5819 5819 5819 5818 5818 5817 5817 5817 5817 5817 5817 5817 5818 5819 5820 5820 5821 5822 5822 5823 5823 5823 5823 5823 5823 5822 5822 5822 5821 5820 5820 5820 5821 5822 5823 5825 5827 5827 5827 5827 5828 5829 5829 5830 5830 5830 5831 5831 5831 5832 5833 5833 5834 5835 5835 5835 5835 5835 5836 5836 5836 5836 5836
5816 5817 5817 5817 5816 5816 5815 5814 5814 5814 5814 5814 5814 5814 5815 5814 5815 5816 5817 5817 5816 5817 5817 5817 5817 5816 5815 5815 5815 5815 5815 5815 5815 5815 5816 5817 5817 5819 5820 5820 5821 5821 5821 5821 5821 5822 5822 5821 5821 5821 5820 5820 5819 5819 5820 5821 5822 5824 5825 5825 5825 5826 5826 5827 5827 5828 5828 5828 5829 5829 5829 5830 5831 5832 5833 5833 5833 5833 5833 5834 5834 5834 5834 5834 5835
5812 5814 5814 5814 5813 5813 5813 5812 5812 5812 5812 5812 5812 5812 5813 5812 5812 5813 5814 5814 5814 5815 5815 5815 5814 5813 5813 5814 5814 5814 5814 5814 5813 5814 5814 5815 5816 5817 5818 5818 5819 5819 5819 5820 5820 5821 5821 5820 5820 5820 5819 5819 5819 5819 5819 5820 5821 5821 5822 5823 5823 5824 5824 5825 5825 5825 5825 5826 5826 5827 5828 5829 5830 5830 5831 5831 5832 5832 5832 5832 5832 5833 5833 5833 5833
5810 5811 5810 5810 5810 5810 5810 5811 5811 5810 5809 5810 5810 5810 5810 5810 5810 5811 5812 5813 5812 5813 5812 5812 5812 5812 5812 5812 5812 5812 5812 5812 5812 5812 5813 5814 5815 5815 5816 5817 5817 5817 5818 5818 5819 5820 5820 5819 5819 5819 5819 5819 5819 5818 5818 5818 5819 5819 5820 5821 5822 5822 5822 5823 5822 5823 5823 5824 5825 5826 5827 5827 5828 5828 5829 5829 5830 5830 5831 5831 5831 5831 5831 5831 5831
5809 5808 5807 5807 5807 5807 5808 5808 5808 5808 5807 5807 5808 5808 5807 5808 5809 5809 5811 5811 5811 5810 5810 5810 5810 5810 5810 5810 5810 5810 5811 5811 5811 5812 5813 5814 5814 5814 5815 5815 5816 5816 5817 5818 5818 5819 5819 5818 5818 5818 5818 5818 5818 5816 5817 5817 5817 5817 5818 5819 5820 5821 5821 5821 5820 5821 5822 5822 5824 5824 5825 5825 5826 5826 5826 5827 5828 5829 5829 5829 5829 5829 5829 5829 5830
5806 5805 5804 5805 5805 5805 5805 5805 5806 5806 5805 5805 5806 5805 5806 5807 5807 5808 5809 5809 5809 5808 5808 5808 5809 5808 5808 5807 5807 5809 5810 5810 5811 5812 5812 5812 5813 5813 5813 5814 5814 5815 5816 5817 5817 5817 5817 5817 5817 5817 5817 5817 5816 5816 5816 5816 5816 5816 5817 5818 5818 5819 5819 5819 5819 5819 5820 5822 5823 5823 5823 5823 5824 5824 5825 5825 5826 5827 5828 5828 5828 5828 5828 5828 5828
5803 5802 5803 5804 5803 5803 5804 5803 5804 5803 5802 5803 5804 5804 5804 5805 5805 5806 5807 5807 5807 5807 5807 5807 5807 5806 5805 5805 5806 5808 5809 5810 5811 5811 5811 5811 5811 5812 5812 5813 5813 5814 5815 5816 5815 5815 5815 5816 5816 5817 5817 5816 5816 5816 5816 5815 5815 5815 5815 5816 5817 5817 5817 5817 5817 5818 5820 5821 5822 5822 5821 5821 5822 5823 5823 5824 5824 5825 5826 5826 5826 5826 5827 5827 5827
5802 5800 5801 5802 5801 5801 5802 5802 5802 5802 5801 5801 5802 5803 5803 5804 5804 5804 5805 5805 5805 5805 5805 5805 5805 5804 5804 5805 5806 5807 5808 5809 5810 5810 5810 5810 5810 5810 5811 5811 5812 5813 5814 5814 5814 5814 5814 5815 5815 5816 5816 5815 5815 5816 5815 5814 5815 5816 5815 5816 5816 5816 5816 5815 5816 5817 5819 5821 5820 5819 5819 5819 5820 5821 5822 5822 5822 5823 5823 5824 5824 5824 5824 5825 5825
5801 5800 5800 5800 5799 5800 5800 5800 5801 5801 5801 5800 5801 5802 5802 5803 5803 5802 5803 5803 5804 5804 5804 5804 5804 5804 5804 5805 5806 5807 5808 5808 5808 5809 5809 5809 5809 5809 5810 5810 5811 5811 5812 5812 5812 5813 5813 5814 5814 5814 5815 5815 5815 5816 5814 5813 5814 5814 5815 5815 5815 5814 5814 5815 5815 5817 5819 5819 5817 5816 5817 5818 5820 5820 5821 5821 5821 5821 5821 5821 5822 5822 5822 5823 5823
5801 5801 5801 5799 5798 5798 5799 5799 5800 5801 5800 5800 5801 5801 5801 5802 5801 5801 5801 5801 5802 5803 5803 5804 5804 5805 5805 5805 5806 5806 5807 5807 5807 5808 5808 5808 5808 5809 5809 5809 5810 5810 5811 5811 5812 5812 5812 5812 5813 5813 5814 5814 5815 5815 5814 5813 5812 5812 5813 5814 5814 5813 5814 5814 5815 5817 5817 5816 5814 5815 5817 5818 5819 5819 5819 5819 5819 5819 5819 5820 5820 5820 5820 5821 5821
5800 5800 5800 5798 5797 5798 5798 5799 5799 5800 5799 5799 5800 5800 5800 5801 5800 5800 5800 5800 5802 5803 5803 5804 5804 5804 5804 5805 5805 5805 5805 5806 5806 5807 5807 5807 5808 5808 5808 5809 5809 5810 5810 5811 5811 5812 5811 5811 5811 5812 5813 5813 5814 5814 5814 5813 5812 5811 5813 5814 5814 5813 5813 5814 5814 5816 5815 5813 5814 5816 5817 5817 5817 5818 5818 5818 5818 5818 5818 5818 5818 5818 5818 5819 5819
5798 5798 5799 5797 5797 5797 5797 5798 5798 5799 5798 5798 5798 5799 5799 5799 5799 5799 5799 5800 5801 5802 5803 5803 5803 5803 5803 5803 5803 5804 5804 5805 5805 5805 5805 5806 5806 5807 5808 5808 5808 5809 5809 5810 5810 5811 5810 5810 5810 5811 5812 5812 5813 5814 5814 5813 5812 5812 5814 5814 5813 5813 5812 5813 5814 5815 5813 5813 5815 5816 5816 5815 5816 5816 5816 5816 5816 5816 5816 5816 5816 5816 5816 5817 5817
5796 5797 5798 5796 5795 5795 5796 5796 5797 5797 5797 5797 5797 5797 5797 5798 5798 5798 5799 5799 5800 5801 5801 5801 5801 5801 5802 5802 5802 5803 5803 5803 5803 5804 5804 5804 5805 5806 5807 5807 5808 5808 5808 5809 5809 5809 5809 5809 5809 5810 5811 5811 5812 5813 5813 5813 5812 5812 5813 5813 5813 5813 5812 5812 5814 5814 5812 5813 5815 5815 5814 5814 5814 5814 5815 5815 5815 5815 5815 5814 5814 5814 5815 5815 5815
5795 5796 5796 5795 5794 5794 5794 5795 5795 5795 5795 5795 5796 5796 5796 5796 5797 5797 5797 5798 5799 5800 5800 5800 5800 5800 5801 5801 5801 5801 5801 5802 5802 5802 5802 5803 5804 5805 5806 5806 5807 5807 5808 5808 5808 5808 5808 5808 5808 5809 5809 5809 5810 5811 5811 5811 5812 5812 5812 5812 5812 5812 5812 5812 5812 5812 5812 5813 5813 5813 5814 5813 5813 5814 5814 5814 5814 5814 5813 5813 5813 5813 5813 5813 5813
5794 5794 5794 5793 5792 5792 5792 5793 5793 5793 5793 5794 5794 5794 5795 5795 5795 5796 5796 5796 5797 5797 5798 5798 5799 5799 5800 5800 5800 5800 5800 5800 5800 5801 5801 5803 5804 5804 5805 5805 5806 5807 5807 5807 5807 5807 5808 5807 5807 5807 5808 5809 5809 5809 5810 5810 5811 5811 5811 5811 5812 5812 5812 5811 5811 5811 5811 5812 5812 5812 5813 5813 5813 5813 5813 5814 5813 5813 5812 5812 5812 5812 5811 5811 5811
5793 5792 5792 5791 5791 5791 5790 5790 5791 5791 5792 5792 5793 5793 5793 5793 5793 5794 5794 5794 5795 5795 5796 5797 5797 5798 5798 5798 5799 5799 5799 5799 5800 5800 5801 5802 5803 5804 5804 5804 5805 5805 5806 5806 5806 5806 5806 5806 5806 5806 5807 5808 5808 5808 5809 5809 5809 5810 5810 5810 5811 5810 5810 5810 5810 5810 5810 5811 5811 5811 5812 5812 5812 5812 5813 5813 5812 5812 5811 5811 5811 5810 5809 5809 5809
5791 5790 5790 5789 5789 5789 5789 5789 5789 5789 5790 5791 5791 5791 5791 5791 5791 5791 5792 5792 5793 5793 5794 5794 5795 5796 5797 5798 5798 5799 5799 5800 5800 5800 5801 5801 5802 5803 5803 5803 5803 5803 5804 5804 5805 5805 5805 5805 5805 5805 5806 5807 5807 5808 5808 5808 5808 5808 5808 5809 5809 5809 5809 5809 5809 5810 5810 5810 5810 5811 5811 5811 5811 5811 5812 5812 5811 5811 5810 5810 5809 5808 5808 5807 5807
5789 5788 5788 5787 5787 5787 5787 5787 5787 5787 5788 5788 5789 5789 5790 5790 5790 5790 5790 5790 5791 5792 5792 5793 5794 5795 5797 5798 5798 5799 5799 5799 5800 5800 5800 5800 5801 5802 5802 5801 5801 5801 5802 5802 5803 5803 5804 5804 5804 5805 5805 5806 5806 5806 5807 5807 5807 5807 5807 5808 5808 5808 5808 5808 5809 5809 5809 5809 5810 5810 5809 5809 5810 5810 5810 5810 5810 5809 5809 5808 5807 5806 5806 5806 5805
5787 5786 5786 5785 5785 5786 5786 5786 5786 5786 5786 5786 5787 5787 5787 5788 5788 5788 5789 5789 5790 5791 5791 5792 5793 5794 5796 5797 5798 5798 5798 5798 5798 5799 5799 5799 5800 5800 5800 5800 5800 5800 5800 5800 5801 5801 5802 5803 5803 5804 5804 5805 5805 5805 5806 5806 5806 5806 5807 5807 5808 5808 5808 5808 5808 5808 5808 5808 5808 5808 5808 5808 5809 5809 5809 5809 5808 5808 5807 5806 5805 5805 5805 5804 5803
5785 5784 5784 5784 5784 5784 5784 5784 5784 5784 5785 5785 5785 5785 5785 5786 5786 5786 5787 5788 5789 5790 5791 5791 5792 5793 5794 5795 5796 5796 5796 5796 5796 5797 5797 5798 5798 5798 5799 5799 5798 5799 5799 5799 5799 5800 5800 5801 5802 5803 5803 5803 5804 5804 5805 5805 5805 5805 5806 5806 5806 5806 5807 5807 5807 5807 5807 5807 5807 5807 5807 5807 5808 5808 5807 5807 5807 5806 5805 5804 5803 5803 5803 5802 5802
5783 5783 5783 5783 5783 5783 5783 5782 5782 5782 5782 5782 5783 5783 5783 5784 5784 5785 5786 5787 5788 5788 5789 5790 5790 5791 5792 5792 5793 5793 5794 5794 5794 5795 5796 5796 5796 5797 5797 5797 5797 5797 5798 5798 5798 5798 5799 5799 5800 5801 5801 5802 5802 5803 5803 5804 5804 5804 5804 5804 5804 5804 5805 5805 5806 5806 5806 5806 5806 5806 5805 5806 5806 5806 5805 5805 5804 5803 5802 5802 5802 5802 5801 5800 5800
5781 5781 5781 5781 5781 5782 5781 5781 5780 5780 5780 5780 5781 5781 5782 5782 5783 5784 5785 5785 5786 5786 5787 5788 5789 5789 5790 5790 5790 5791 5791 5791 5792 5793 5793 5794 5795 5795 5795 5795 5795 5796 5796 5797 5796 5796 5797 5798 5798 5799 5800 5800 5801 5801 5802 5802 5803 5803 5802 5802 5802 5802 5803 5804 5804 5804 5804 5804 5805 5804 5803 5803 5804 5804 5803 5802 5801 5800 5800 5800 5800 5799 5798 5798 5798
5779 5779 5779 5780 5780 5780 5780 5780 5779 5779 5779 5779 5779 5780 5780 5781 5782 5783 5784 5784 5784 5784 5785 5786 5787 5787 5788 5788 5788 5789 5789 5789 5790 5790 5791 5792 5792 5793 5793 5793 5793 5794 5794 5795 5795 5795 5795 5796 5797 5797 5798 5798 5799 5799 5800 5800 5801 5801 5800 5800 5800 5800 5801 5802 5802 5802 5802 5802 5802 5802 5802 5802 5801 5801 5801 5800 5799 5798 5799 5799 5798 5797 5797 5796 5795
5777 5777 5778 5778 5778 5778 5778 5778 5778 5778 5778 5778 5778 5778 5779 5780 5780 5781 5782 5782 5782 5783 5783 5784 5785 5785 5786 5786 5787 5787 5787 5787 5788 5789 5789 5790 5790 5791 5791 5792 5792 5792 5793 5793 5793 5794 5794 5794 5795 5796 5796 5797 5797 5797 5798 5798 5798 5798 5798 5798 5798 5798 5799 5799 5800 5800 5800 5800 5800 5800 5800 5800 5800 5799 5798 5798 5797 5797 5797 5797 5796 5795 5795 5794 5794
5775 5775 5776 5776 5776 5776 5776 5776 5776 5776 5776 5776 5776 5777 5777 5778 5779 5779 5780 5780 5780 5781 5781 5782 5783 5783 5784 5785 5785 5785 5785 5786 5787 5787 5788 5788 5788 5789 5789 5790 5790 5791 5791 5791 5792 5792 5792 5792 5793 5794 5794 5795 5795 5795 5795 5796 5796 5796 5796 5796 5796 5797 5797 5797 5798 5798 5798 5798 5798 5798 5798 5798 5798 5797 5796 5795 5795 5796 5795 5795 5794 5794 5793 5793 5792
5773 5773 5774 5774 5774 5774 5774 5774 5774 5774 5774 5774 5775 5775 5776 5776 5777 5777 5777 5778 5778 5779 5779 5780 5781 5782 5783 5784 5784 5784 5783 5784 5785 5786 5786 5787 5787 5787 5787 5788 5789 5789 5790 5790 5790 5790 5791 5791 5791 5792 5792 5792 5793 5793 5793 5794 5794 5794 5794 5794 5795 5795 5796 5796 5795 5796 5796 5796 5796 5796 5797 5796 5795 5795 5794 5794 5794 5794 5794 5793 5792 5792 5792 5791 5790
5771 5771 5771 5771 5772 5772 5772 5772 5772 5772 5772 5773 5773 5774 5774 5775 5775 5775 5776 5776 5777 5777 5778 5779 5780 5781 5782 5782 5782 5783 5782 5782 5783 5784 5784 5785 5785 5785 5786 5786 5787 5787 5788 5788 5788 5788 5789 5789 5790 5790 5791 5791 5791 5791 5792 5792 5792 5792 5792 5793 5793 5793 5794 5794 5793 5794 5794 5794 5794 5794 5795 5794 5793 5793 5793 5792 5792 5792 5792 5791 5791 5791 5790 5789 5789